Terug naar catalogus

OPS 5114

NAVSTAR 4

ActiefNavigatieMEO
NORAD 11141·PAYLOAD·🇺🇸 United States

Gelanceerd Dec 11, 1978 vanaf Vandenberg Space Force Base

Loading…

Volgende Passages (komende 24 uur)

TLE

VersSource: Space-Track

Epoch: Sep 12, 2026, 03:46 UTC

1 11141U 78112A   26255.15714777 -.00000004  00000-0  00000-0 0  9991
2 11141  63.7688  69.6222 0146273  51.2487 311.9277  1.92895502230775

Volg OPS 5114 in realtime met AllMySat

Download on the App Store